[[{"header":{"parameterUnit":"m.s-1","parameterCategory":1,"la1":30.2991,"la2":30.254,"lo1":-89.0895,"lo2":-89.0444,"dy":0.0017,"dx":0.0017,"nx":28,"ny":28,"refTime":"2023-09-13T09:00:00:Z","depth":0,"parameterNumber":2,"parameterNumberName":"U-component_of_WINDS"},"data":[0,0,0,0,0,0,0,0,0,0,0,0,0,0,0,0,0,0,0,0,0,0,0,0,0,0,0,0,0,0,0,0,0,0,0,0,0,0,0,0,0,0,0,0,0,0,0,0,0,0,0,0,0,0,0,0,0,0,-3.5936,-3.5936,0,-3.5901,-3.5901,-3.5901,-3.5807,-3.5805,-3.5803,-3.5801,-3.5768,-3.5769,-3.577,0,0,0,0,0,0,0,0,0,0,0,0,0,-3.5925,-3.5925,-3.5936,-3.5936,-3.5935,-3.5901,-3.5901,-3.5901,-3.5807,-3.5805,-3.5802,-3.58,-3.5768,-3.5769,-3.577,0,0,0,0,0,0,0,0,0,0,0,0,0,-3.5914,-3.5925,-3.5936,-3.5885,-3.588,-3.5902,-3.5901,-3.59,-3.5808,-3.5805,-3.5802,-3.5799,-3.5768,-3.5769,-3.5771,-3.584,0,0,-3.5775,-3.5776,0,0,0,0,0,0,0,0,-3.5915,-3.5914,-3.5893,-3.5888,-3.5883,-3.5855,-3.5885,-3.588,-3.5809,-3.5835,-3.5801,-3.5798,-3.58,-3.5799,-3.5799,-3.5839,-3.5837,-3.5775,-3.5776,-3.5777,-3.5777,0,0,0,0,0,0,0,-3.5915,-3.5915,-3.5922,-3.5893,-3.5887,-3.5864,-3.5859,-3.5883,-3.5835,-3.5833,-3.5826,-3.5823,-3.5797,-3.5798,-3.5797,-3.5837,-3.5775,-3.5777,-3.5777,-3.5778,-3.5933,-3.5936,0,0,0,0,0,0,-3.5923,-3.5917,-3.5924,-3.5921,-3.5891,-3.5867,-3.5861,-3.5867,-3.5835,-3.5827,-3.5825,-3.5819,-3.5796,-3.5796,-3.5796,-3.5875,-3.5777,-3.5778,-3.5779,-3.5929,-3.5933,-3.5937,0,0,0,0,0,0,-3.5923,-3.5925,-3.5925,-3.5917,-3.5915,-3.587,-3.5878,-3.5868,-3.5869,-3.5829,-3.582,-3.5835,-3.5794,-3.5794,-3.583,-3.5873,-3.5779,-3.578,-3.5926,-3.5931,-3.5935,-3.6035,0,0,0,0,0,0,-3.5923,-3.5925,-3.5951,-3.5918,-3.5916,-3.5959,-3.588,-3.587,-3.5871,-3.5862,-3.5836,-3.5828,-3.5792,-3.5828,-3.5831,-3.5873,-3.5781,-3.5922,-3.5928,-3.5934,-3.6028,-3.6043,-3.6056,0,0,0,0,0,-3.5923,-3.5981,-3.5953,-3.5954,-3.5947,-3.5962,-3.5961,-3.5916,-3.5875,-3.5901,-3.5875,-3.5829,-3.5868,-3.5833,-3.5835,-3.5879,-3.5919,-3.5926,-3.5933,-3.6022,-3.604,-3.6055,0,0,0,0,0,0,-3.6021,-3.5976,-3.5944,-3.5993,-3.5982,-3.5946,-3.5977,-3.5937,-3.5938,-3.593,-3.5875,-3.587,-3.5914,-3.59,-3.5861,-3.5944,-3.5886,-3.5894,-3.5952,-3.5969,-3.5983,-3.5985,-3.5783,0,0,0,0,0,-3.6048,-3.6063,-3.6023,-3.607,-3.6066,-3.6023,-3.6028,-3.5994,-3.5981,-3.5976,-3.5953,-3.5943,-3.5952,-3.596,-3.5966,-3.6025,-3.6019,-3.6057,-3.607,-3.6082,-3.609,-3.612,-3.6137,-3.596,-3.596,-3.596,0,0,-3.6104,-3.6082,-3.6094,-3.6089,-3.6077,-3.6094,-3.6019,-3.6041,-3.6054,-3.598,-3.6012,-3.5995,-3.598,-3.6028,-3.6048,-3.6017,-3.6137,-3.6091,-3.6101,-3.6102,-3.6129,-3.6146,-3.6161,-3.5965,-3.5964,-3.5964,0,0,-3.6216,-3.62,-3.6237,-3.6226,-3.6208,-3.6178,-3.6188,-3.6158,-3.6143,-3.6175,-3.612,-3.6134,-3.6152,-3.6143,-3.6142,-3.625,-3.6208,-3.6254,-3.6327,-3.6357,-3.6371,-3.6383,-3.6422,-3.6436,-3.6262,-3.6262,-3.6262,0,-3.6288,-3.6311,-3.6262,-3.6287,-3.6286,-3.6219,-3.6257,-3.6249,-3.6234,-3.6236,-3.6202,-3.6222,-3.6207,-3.6252,-3.6279,-3.6279,-3.6289,-3.6257,-3.6372,-3.6384,-3.6395,-3.6431,-3.6446,-3.6268,-3.6267,-3.6266,-3.6266,0,-3.6402,-3.6419,-3.6451,-3.6438,-3.6441,-3.6472,-3.6428,-3.6437,-3.6404,-3.6379,-3.6412,-3.6392,-3.6393,-3.6401,-3.6369,-3.6442,-3.6424,-3.6382,-3.6322,-3.6418,-3.6451,-3.6465,-3.6276,-3.6274,-3.6272,-3.6271,0,0,-3.6574,-3.6532,-3.6545,-3.6538,-3.6513,-3.6525,-3.6554,-3.6554,-3.6564,-3.6556,-3.6579,-3.6595,-3.6557,-3.6555,-3.6521,-3.6547,-3.6635,-3.6502,-3.6501,-3.6528,-3.6714,-3.6746,-3.6763,-3.6607,-3.6609,-3.6611,-3.6716,0,-3.6679,-3.6725,-3.6681,-3.6735,-3.6751,-3.6687,-3.6712,-3.67,-3.6677,-3.6687,-3.6662,-3.6675,-3.6623,-3.6621,-3.6644,-3.6619,-3.6672,-3.6611,-3.6629,-3.663,-3.6634,-3.678,-3.6814,-3.6913,-3.6728,-3.6731,-3.6732,0,-3.6808,-3.6805,-3.6861,-3.6832,-3.6837,-3.686,-3.6857,-3.6867,-3.6852,-3.6834,-3.6832,-3.6791,-3.6817,-3.6759,-3.6795,-3.6755,-3.676,-3.6749,-3.6752,-3.6752,-3.6687,-3.6785,-3.6944,-3.6959,-3.6752,-3.6751,-3.6749,0,-3.6928,-3.6939,-3.6973,-3.6969,-3.6936,-3.6954,-3.6941,-3.6923,-3.6926,-3.6924,-3.6925,-3.6927,-3.6928,-3.693,-3.6891,-3.6852,-3.6933,-3.6871,-3.6919,-3.692,-3.6939,-3.6939,-3.7102,-3.6942,-3.6942,-3.6942,-3.6941,0,-3.705,-3.7087,-3.7027,-3.7048,-3.7088,-3.7037,-3.7078,-3.7059,-3.7043,-3.7061,-3.7006,-3.7024,-3.697,-3.6983,-3.6952,-3.6988,-3.6988,-3.6975,-3.6966,-3.698,-3.6982,-3.6982,-3.6974,-3.6946,-3.6945,-3.6944,-3.6943,0,-3.7192,-3.7152,-3.7186,-3.7152,-3.7144,-3.7175,-3.7146,-3.7165,-3.7138,-3.7161,-3.7163,-3.7122,-3.7134,-3.7094,-3.71,-3.7079,-3.7131,-3.7111,-3.7136,-3.713,-3.7181,-3.7177,-3.735,-3.7371,-3.7198,-3.72,-3.7201,0,-3.7272,-3.7299,-3.7267,-3.7274,-3.7264,-3.7276,-3.7279,-3.723,-3.7236,-3.7221,-3.7242,-3.7248,-3.7251,-3.7273,-3.7244,-3.7249,-3.7228,-3.7289,-3.7229,-3.7241,-3.723,-3.7229,-3.7231,-3.7302,-3.7304,-3.7305,-3.7307,0,-3.742,-3.7399,-3.7404,-3.7402,-3.7407,-3.7404,-3.7397,-3.7406,-3.7354,-3.7363,-3.7373,-3.7376,-3.7381,-3.7389,-3.7387,-3.7374,-3.7333,-3.7326,-3.7337,-3.7352,-3.7365,-3.7359,-3.7171,-3.7322,-3.7321,-3.732,-3.7319,-3.7318,-3.7533,-3.7553,-3.7534,-3.7542,-3.7531,-3.7526,-3.7542,-3.7517,-3.7525,-3.7525,-3.7496,-3.7513,-3.7497,-3.749,-3.7482,-3.7495,-3.7467,-3.7484,-3.7488,-3.7493,-3.7501,-3.7363,-3.7495,-3.7494,-3.7494,-3.7493,-3.7493,0,-3.7677,-3.7662,-3.7669,-3.7661,-3.7667,-3.7626,-3.7616,-3.7625,-3.764,-3.7628,-3.7632,-3.7645,-3.7652,-3.7624,-3.7627,-3.7643,-3.7624,-3.7646,-3.7644,-3.7642,-3.7526,-3.7516,-3.7661,-3.7661,-3.7661,-3.7661,-3.7661,-3.7661,-3.7753,-3.7786,-3.7763,-3.779,-3.7774,-3.7789,-3.7788,-3.7783,-3.7774,-3.779,-3.7795,-3.7776,-3.7758,-3.776,-3.7765,-3.7757,-3.7761,-3.7789,-3.7775,-3.7667,-3.765,-3.7635,-3.7625,-3.7791,-3.7791,-3.789,-3.7891,-3.7891]},{"header":{"parameterUnit":"m.s-1","parameterCategory":1,"la1":30.2991,"la2":30.254,"lo1":-89.0895,"lo2":-89.0444,"dy":0.0017,"dx":0.0017,"nx":28,"ny":28,"refTime":"2023-09-13T09:00:00:Z","depth":0,"parameterNumber":3,"parameterNumberName":"V-component_of_WINDS"},"data":[0,0,0,0,0,0,0,0,0,0,0,0,0,0,0,0,0,0,0,0,0,0,0,0,0,0,0,0,0,0,0,0,0,0,0,0,0,0,0,0,0,0,0,0,0,0,0,0,0,0,0,0,0,0,0,0,0,0,0.4366,0.4365,0,0.4311,0.431,0.4309,0.4278,0.4278,0.4278,0.4278,0.4219,0.4218,0.4216,0,0,0,0,0,0,0,0,0,0,0,0,0,0.4443,0.4441,0.4366,0.4365,0.4364,0.4311,0.431,0.4309,0.4278,0.4278,0.4278,0.4278,0.422,0.4218,0.4216,0,0,0,0,0,0,0,0,0,0,0,0,0,0.4401,0.4441,0.4366,0.4342,0.434,0.4311,0.431,0.4309,0.4278,0.4278,0.4278,0.4278,0.422,0.4218,0.4216,0.4205,0,0,0.4209,0.4208,0,0,0,0,0,0,0,0,0.4403,0.4398,0.4346,0.4344,0.4341,0.4301,0.4316,0.4274,0.4278,0.4301,0.4278,0.4278,0.4246,0.4242,0.4232,0.4203,0.42,0.4209,0.4208,0.4207,0.4206,0,0,0,0,0,0,0,0.4406,0.44,0.4344,0.4346,0.4342,0.4334,0.4328,0.4308,0.4275,0.4299,0.4297,0.4291,0.4245,0.4234,0.423,0.4199,0.4209,0.4207,0.4206,0.4205,0.416,0.416,0,0,0,0,0,0,0.4413,0.4403,0.4346,0.4342,0.4372,0.4333,0.4326,0.4314,0.4276,0.427,0.4291,0.429,0.4238,0.4233,0.4228,0.4214,0.4207,0.4205,0.4203,0.4159,0.416,0.416,0,0,0,0,0,0,0.4415,0.4408,0.4348,0.4372,0.4363,0.4332,0.4318,0.4313,0.4302,0.4269,0.4263,0.4286,0.4238,0.4231,0.4212,0.4211,0.4204,0.4202,0.4159,0.4159,0.416,0.4185,0,0,0,0,0,0,0.4417,0.4409,0.4405,0.4372,0.4362,0.4333,0.4318,0.4312,0.4299,0.4296,0.4263,0.4257,0.4237,0.4215,0.421,0.4208,0.42,0.4159,0.4159,0.416,0.4184,0.4186,0.4188,0,0,0,0,0,0.442,0.4413,0.4405,0.4398,0.4357,0.4333,0.4327,0.4304,0.4299,0.4294,0.4274,0.4259,0.4213,0.4213,0.4207,0.4205,0.4159,0.4159,0.416,0.4183,0.4186,0.4188,0,0,0,0,0,0,0.4446,0.4409,0.4398,0.4381,0.4361,0.4327,0.4321,0.4308,0.4287,0.4286,0.4258,0.425,0.4234,0.4217,0.4219,0.4193,0.4184,0.4183,0.4204,0.4206,0.4208,0.4212,0.4198,0,0,0,0,0,0.445,0.4434,0.4402,0.439,0.438,0.4353,0.4341,0.4326,0.4303,0.4294,0.4271,0.4249,0.4229,0.4217,0.4197,0.4182,0.4174,0.4177,0.4179,0.4181,0.418,0.4171,0.4172,0.4161,0.4161,0.4161,0,0,0.4457,0.4435,0.4427,0.4395,0.4377,0.4361,0.4345,0.4329,0.4317,0.4291,0.4271,0.4254,0.4227,0.421,0.4201,0.4196,0.4182,0.4181,0.4183,0.4181,0.4171,0.4173,0.4174,0.4161,0.4161,0.4161,0,0,0.4463,0.4445,0.4433,0.4416,0.4389,0.4371,0.4368,0.4338,0.4326,0.4306,0.4286,0.4271,0.4238,0.422,0.4207,0.4208,0.4193,0.4202,0.4211,0.4203,0.4204,0.4205,0.4205,0.4205,0.4201,0.4201,0.4201,0,0.4475,0.4451,0.4428,0.4413,0.44,0.4377,0.4365,0.4349,0.4318,0.4309,0.4303,0.4262,0.4243,0.4221,0.4222,0.4211,0.4207,0.4205,0.4206,0.4206,0.4206,0.4206,0.4207,0.4203,0.4202,0.4202,0.4202,0,0.4468,0.4451,0.4445,0.4416,0.4402,0.4389,0.4364,0.4352,0.4339,0.4321,0.4302,0.4278,0.4253,0.4247,0.4232,0.4223,0.4221,0.4211,0.4201,0.4209,0.4209,0.4209,0.4204,0.4204,0.4204,0.4203,0,0,0.4487,0.4447,0.4445,0.4432,0.4402,0.4388,0.4374,0.4351,0.4342,0.4321,0.4308,0.4282,0.4273,0.4258,0.4242,0.4234,0.4237,0.4225,0.4224,0.4228,0.4226,0.4234,0.4234,0.4228,0.4228,0.4227,0.4228,0,0.4488,0.4462,0.4442,0.4423,0.4408,0.4387,0.4375,0.4355,0.4339,0.4323,0.4304,0.4286,0.4276,0.4267,0.4259,0.4238,0.4236,0.4238,0.4215,0.4215,0.4222,0.4234,0.4241,0.4243,0.4228,0.4228,0.4228,0,0.4486,0.4467,0.4447,0.442,0.4413,0.4402,0.438,0.4365,0.4342,0.4331,0.4315,0.4299,0.4283,0.4275,0.4253,0.4255,0.4244,0.4233,0.4233,0.4229,0.4221,0.423,0.4243,0.4243,0.4227,0.4227,0.4227,0,0.4502,0.4472,0.4456,0.4446,0.4413,0.4406,0.4392,0.437,0.4357,0.4338,0.433,0.4308,0.4297,0.428,0.4259,0.4255,0.4238,0.4229,0.4228,0.4229,0.4225,0.4226,0.4236,0.4219,0.4219,0.4219,0.4219,0,0.4505,0.4494,0.4463,0.4454,0.4441,0.4418,0.4405,0.439,0.437,0.4357,0.4337,0.4325,0.4297,0.4282,0.4265,0.4249,0.4243,0.4234,0.4229,0.4235,0.4237,0.4228,0.4227,0.4219,0.4219,0.4219,0.4219,0,0.4521,0.45,0.4482,0.4453,0.4446,0.4437,0.4412,0.4402,0.4386,0.4369,0.4364,0.4337,0.4319,0.4296,0.4269,0.4257,0.4243,0.4236,0.4251,0.4248,0.4249,0.4249,0.4254,0.4254,0.4237,0.4237,0.4237,0,0.4524,0.4515,0.4486,0.4477,0.4464,0.4448,0.4436,0.4413,0.4401,0.4376,0.4369,0.4348,0.4331,0.4302,0.428,0.4259,0.4252,0.4255,0.4248,0.4255,0.4252,0.4253,0.4252,0.4256,0.4257,0.4257,0.4257,0,0.4532,0.4523,0.4507,0.4487,0.4474,0.4457,0.4439,0.4432,0.4406,0.4393,0.4374,0.4361,0.4335,0.4315,0.4292,0.4277,0.4263,0.426,0.4258,0.4264,0.4273,0.4269,0.4256,0.4259,0.4259,0.4259,0.4259,0.4259,0.4542,0.4533,0.4512,0.4495,0.4479,0.4464,0.4453,0.4436,0.442,0.4397,0.4385,0.4366,0.4344,0.4312,0.4298,0.4283,0.4278,0.4276,0.4275,0.4275,0.4277,0.4276,0.4279,0.4279,0.4279,0.4278,0.4278,0,0.4549,0.4535,0.4519,0.4496,0.4483,0.4472,0.4452,0.4441,0.4425,0.4407,0.4391,0.4369,0.435,0.4327,0.4307,0.4299,0.4292,0.4295,0.4295,0.4292,0.4283,0.4286,0.4301,0.4301,0.4301,0.4301,0.4301,0.4301,0.4552,0.4537,0.4525,0.4503,0.4488,0.4471,0.446,0.4446,0.4431,0.4408,0.4393,0.4378,0.4358,0.4336,0.4318,0.4312,0.4305,0.431,0.4302,0.4294,0.4292,0.429,0.4293,0.4309,0.4309,0.4311,0.4311,0.4312]}]]